Startseite
Über Mich
AHP4
Galerie
Sehschlangen
Tourenbuch
Bookmarks
Elektronik
Bewertung
Geschichten
[Tagesmessung] [Jahreswerte] [Information]

Messwerte vom 16.02.2022

Die letzten Messwerte von 23:58:45 Uhr:
KategorieMesswert
Temperatur [°C]11
Luftdruck [mBar]968
Sonneneinstrahlung0
Wind [km/h]7 aus Südwest
Niederschlag [l/m²]0.2575
rel.Luftfeucht.96.6%
CO2 [ppm]434

Diagramme
Messwerte vom 16.02.2022
Tagesaggregation
KategorieMinimumMaximumSchnittSumme
Temperatur [°C]5118.1250
Luftdruck [mBar]968990979.8125
Sonneneinstrahlung22371.1813
Wind [km/h]32
rF [%]83.496.693.24
Niederschlag [l/m²]3.3475
CO2 [ppm]434721636.7
Einordnung alsVegetationstag

Messungen an benachbarten Tagen: Zur Jahresaggregation 2022
Tabelle aller Messwerte
UhrzeitTemperatur [°C]Luftdruck [mBar]SonneWind [km/h]RichtungRegen [l/m²]rF [%]CO2 [ppm]
00:01:47 6 989 0 7 SO 0 83.5 558
00:04:48 6 989 0 7 S 0 83.8 574
00:07:45 6 990 0 10 S 0 83.5 565
00:10:46 6 989 0 5 S 0 83.4 568
00:13:48 6 989 0 13 SO 0 83.4 567
00:16:49 6 990 0 13 SW 0 83.6 571
00:19:46 6 989 0 6 S 0 84.1 572
00:22:45 6 990 0 5 S 0 84.6 573
00:25:47 6 989 0 3 S 0 85.7 573
00:28:47 6 990 0 10 SW 0 86.2 571
00:31:48 6 989 0 3 NW 0 86.4 577
00:34:46 6 989 0 9 S 0 87 575
00:37:46 6 989 0 5 O 0 87.3 577
00:40:47 6 990 0 9 S 0 87.5 577
00:43:47 6 989 0 2 0 87.5 583
00:46:47 6 990 0 10 SO 0 87.9 589
00:49:50 6 989 0 4 SO 0 89.3 586
00:52:46 6 989 0 4 SW 0 89.3 585
00:55:47 6 989 0 4 N 0 89.3 580
00:58:47 6 989 0 9 NW 0 89.4 577
01:01:48 6 989 0 4 S 0 89.4 580
01:04:46 6 989 0 9 O 0 89.4 586
01:07:46 6 988 0 2 S 0 89.5 589
01:10:48 6 989 0 12 SO 0 89.2 588
01:13:47 6 989 0 12 SO 0 88.4 591
01:16:46 6 988 0 3 S 0 88.2 594
01:19:45 6 988 0 10 W 0 88.1 598
01:22:46 6 988 0 12 S 0 88 594
01:25:48 6 988 0 5 SW 0 88 591
01:28:48 6 988 0 5 NW 0 88.1 589
01:31:48 6 988 0 10 S 0 87.9 586
01:34:45 6 988 0 2 S 0 87.9 591
01:37:46 6 988 0 8 S 0 88 591
01:40:46 6 988 0 7 S 0 88 594
01:43:46 6 988 0 5 SO 0 87.9 591
01:46:47 6 988 0 9 W 0 87.6 591
01:49:47 6 988 0 12 S 0 87.3 592
01:52:45 6 988 0 9 S 0 87 597
01:55:44 6 988 0 8 W 0 87.1 591
01:58:45 6 988 0 4 S 0 87 597
02:01:47 6 988 0 6 SO 0 87.2 595
02:04:48 6 988 0 5 SW 0 87 597
02:07:47 6 988 0 9 S 0 86.9 594
02:10:46 6 988 0 16 W 0 86.7 597
02:13:48 6 988 0 6 W 0 86.8 606
02:16:47 6 989 0 21 SW 0 87.2 600
02:19:48 6 988 0 14 W 0 87.2 603
02:22:48 6 988 0 9 S 0 87.6 602
02:25:49 6 988 0 10 SO 0 87.7 595
02:28:47 6 988 0 4 S 0 87.8 593
02:31:47 6 987 0 8 SO 0 87.8 592
02:34:48 6 987 0 25 SO 0 88 592
02:37:46 6 988 0 4 S 0 88.3 597
02:40:46 6 987 0 6 SW 0 88.1 597
02:43:47 6 988 0 7 S 0 88 603
02:46:46 6 988 0 3 N 0 88 603
02:49:47 6 987 0 9 SO 0 87.9 603
02:52:46 6 987 0 6 S 0 87.6 601
02:55:46 6 988 0 8 S 0 87.3 594
02:58:45 6 988 0 3 S 0 87.3 601
03:01:48 6 988 0 7 S 0 87.4 598
03:04:46 6 987 0 9 SO 0 87.2 597
03:07:47 6 987 0 5 W 0 87.2 600
03:10:49 6 987 0 10 N 0 87.2 600
03:13:46 6 988 0 12 N 0 87 604
03:16:48 6 987 0 12 SO 0 87 606
03:19:46 6 987 0 12 O 0 87.1 604
03:22:46 6 987 0 8 N 0 87.1 600
03:25:46 6 987 0 7 S 0 87 600
03:28:47 6 987 0 5 S 0 86.8 598
03:31:48 6 987 0 6 S 0 86.8 598
03:34:49 6 987 0 11 SW 0 87.2 600
03:37:45 6 987 0 5 S 0 87.2 601
03:40:48 6 987 0 5 SW 0 87 601
03:43:47 6 987 0 9 S 0 86.9 598
03:46:47 6 987 0 4 SW 0 86.9 598
03:49:47 6 987 0 10 SO 0 87.1 600
03:52:45 6 987 0 12 O 0 87.2 594
03:55:48 6 987 0 12 SO 0 87.2 602
03:58:48 6 987 0 5 SW 0 87.2 592
04:01:46 6 987 0 5 W 0 87.1 594
04:04:46 6 987 0 9 W 0 87.3 597
04:07:45 6 987 0 9 S 0 87.3 601
04:10:46 6 987 0 13 S 0 87.3 595
04:13:46 6 987 0 8 NW 0 87.2 600
04:16:46 6 987 0 14 S 0 87 609
04:19:47 6 987 0 5 SW 0 86.9 607
04:22:48 6 987 0 3 W 0 86.8 596
04:25:46 6 987 0 7 W 0 87 597
04:28:46 6 987 0 9 SW 0 87 598
04:31:46 6 987 0 8 S 0 87 603
04:34:48 6 987 0 8 N 0 86.9 603
04:37:45 6 987 0 5 S 0 86.7 612
04:40:46 6 987 0 19 S 0 86.7 612
04:43:47 6 986 0 12 SW 0 86.3 597
04:46:46 6 987 0 4 S 0 86.3 594
04:49:47 6 987 0 4 SW 0 86.7 597
04:52:46 6 986 0 7 W 0 86.7 600
04:55:47 6 987 0 18 SO 0 86.7 594
04:58:46 6 985 0 6 SW 0 86.6 594
05:01:47 6 987 0 11 SW 0 86.6 591
05:04:48 6 986 0 5 S 0 86.6 592
05:07:46 6 986 0 10 S 0 86.5 594
05:10:46 6 986 0 13 S 0 86.6 594
05:13:45 6 986 0 7 O 0 86.6 607
05:16:47 6 986 0 9 SW 0 86.8 606
05:19:46 6 986 0 3 SW 0 86.9 605
05:22:46 6 986 0 5 S 0 87.4 606
05:25:46 6 986 0 8 W 0 87.6 613
05:28:48 6 986 0 10 W 0 87.6 606
05:31:47 6 986 0 6 SW 0 87.9 609
05:34:46 6 986 0 8 S 0 88.9 606
05:37:47 6 986 0 8 W 0 89.8 609
05:40:48 6 986 0 5 SO 0 90.5 615
05:43:47 6 985 0 9 SW 0 91.4 616
05:46:45 6 986 0 6 0 92 615
05:49:46 6 986 0 5 SW 0 92.6 606
05:52:49 6 986 0 8 SO 0 93.2 607
05:55:46 6 986 0 8 SW 0 93.5 603
05:58:46 6 986 0 7 SW 0 93.7 598
06:01:46 6 985 0 9 S 0.2575 94.3 607
06:04:49 6 985 0 11 SW 0 94.9 613
06:07:47 6 986 0 4 S 0 95.3 612
06:10:49 6 985 0 7 W 0 95.7 605
06:13:47 6 986 0 2 SO 0 96.2 606
06:16:46 6 985 0 9 SO 0 96.6 609
06:19:49 6 985 0 16 SW 0 96.6 613
06:22:47 6 984 0 6 SO 0.2575 96.6 613
06:25:45 6 985 0 8 O 0 96.6 618
06:28:48 6 985 0 14 S 0 96.6 615
06:31:45 5 984 0 9 S 0 96.6 615
06:34:48 5 985 0 8 SO 0 96.6 618
06:37:47 5 985 0 9 SO 0 96.6 618
06:40:46 5 985 0 11 S 0.2575 96.6 621
06:43:48 5 984 0 4 SO 0 96.6 630
06:46:47 5 984 0 12 SO 0 96.6 622
06:49:45 5 984 0 6 S 0 96.6 615
06:52:47 6 984 0 11 W 0 96.6 610
06:55:43 6 984 0 7 O 0 96.6 611
06:58:47 6 984 0 12 NW 0 96.6 621
07:01:49 6 984 0 16 S 0 96.6 623
07:04:46 6 984 0 3 SW 0.2575 96.6 618
07:07:50 6 984 9 5 SO 0 96.6 603
07:10:47 5 984 4 5 SO 0 96.6 618
07:13:46 6 984 6 7 SW 0 96.6 632
07:16:47 6 984 8 7 SW 0 96.6 638
07:19:49 6 984 13 15 SW 0 96.6 630
07:22:49 6 984 21 9 S 0 96.6 628
07:25:47 6 984 30 4 S 0 96.6 638
07:28:47 6 984 35 10 SO 0 96.6 646
07:31:45 6 984 43 15 S 0 96.6 650
07:34:46 6 984 49 7 O 0 96.6 641
07:37:47 6 984 61 12 SW 0 96.6 647
07:40:45 6 984 69 4 S 0 96.6 649
07:43:48 6 984 68 12 SO 0 96.6 651
07:46:50 6 984 71 13 SO 0 96.6 647
07:49:46 6 984 81 8 S 0 96.6 650
07:52:47 6 984 99 5 SW 0 96.6 656
07:55:49 6 984 113 8 S 0 96.6 655
07:58:48 6 983 122 10 SW 0 96.6 644
08:01:49 6 983 130 12 S 0 96.6 638
08:04:47 6 984 133 20 SW 0 96.6 644
08:07:49 6 984 136 4 0 96.6 660
08:10:47 6 983 125 5 SO 0 96.6 664
08:13:47 6 983 115 7 SO 0 96.6 661
08:16:48 6 984 114 6 S 0 96.6 659
08:19:48 6 983 124 13 W 0 96.6 658
08:22:46 6 984 135 6 S 0 96.6 662
08:25:48 6 983 139 10 S 0 96.6 662
08:28:48 6 983 122 8 S 0 96.5 667
08:31:48 6 984 115 9 S 0 96.3 671
08:34:46 6 983 114 18 S 0 96.4 671
08:37:49 6 984 125 5 NO 0 96.4 670
08:40:51 6 983 145 18 SO 0 96.3 677
08:43:48 6 983 155 8 S 0 96.3 676
08:46:48 7 983 166 10 S 0.2575 95.8 671
08:49:48 7 982 170 3 S 0 95 665
08:52:48 7 984 173 19 S 0 94.8 659
08:55:45 7 983 161 6 SW 0 94.4 653
08:58:48 7 983 154 2 SO 0 94.2 663
09:01:49 7 983 160 9 SO 0 94.2 667
09:04:48 7 983 169 7 SO 0 94.3 678
09:07:48 7 982 180 8 SW 0 94.3 671
09:10:48 7 983 193 4 O 0 94 673
09:13:49 7 982 178 10 S 0 93.1 661
09:16:46 7 982 157 5 S 0 92.7 670
09:19:48 7 982 158 5 SO 0 92.5 674
09:22:50 7 981 166 8 SO 0 92.9 677
09:25:49 7 981 164 9 SO 0 92.8 674
09:28:48 7 981 160 12 S 0 92.7 674
09:31:49 7 982 155 3 SO 0 92.9 682
09:34:47 7 981 145 22 SO 0 93.2 676
09:37:46 7 981 144 4 S 0 93.7 670
09:40:46 7 981 135 9 S 0 94.3 671
09:43:47 7 981 123 6 SW 0 95.1 676
09:46:49 7 981 123 8 SO 0 95.9 689
09:49:49 7 980 137 9 SO 0 96.3 697
09:52:49 7 980 149 12 SO 0 96.5 697
09:55:49 7 980 166 8 SO 0 96.6 702
09:58:48 7 980 177 6 SO 0.2575 96.6 697
10:01:49 7 980 194 7 S 0 96.6 697
10:04:48 7 980 199 8 N 0 96.6 690
10:07:46 7 980 204 6 S 0 96.6 700
10:10:47 7 980 205 11 SO 0 96.6 694
10:13:48 7 980 201 14 SW 0 96.6 691
10:16:49 7 980 205 11 SW 0 96.6 687
10:19:49 7 980 207 16 S 0 96.1 685
10:22:47 7 980 195 10 SO 0 95.8 682
10:25:48 7 980 206 9 S 0 95.8 685
10:28:49 8 980 207 10 SW 0 95.2 682
10:31:48 8 980 207 11 SW 0 95.3 690
10:34:46 8 980 207 8 0 94.5 682
10:37:48 8 980 200 6 S 0 94.4 682
10:40:48 8 980 200 9 S 0 94.2 676
10:43:49 8 980 201 14 SO 0 93.6 668
10:46:48 8 980 206 4 S 0 93.4 662
10:49:49 8 980 217 8 SO 0 93.4 664
10:52:50 8 980 215 9 SO 0 93.3 665
10:55:50 8 980 215 7 S 0 93.2 665
10:58:47 8 980 200 7 S 0 92.4 671
11:01:49 8 980 169 8 W 0 91.5 679
11:04:49 8 980 190 10 NO 0.2575 91.9 689
11:07:48 8 980 194 16 SW 0 93.1 692
11:10:49 8 980 207 13 SW 0 94.2 685
11:13:47 8 980 204 14 NO 0 94.8 677
11:16:47 8 980 205 12 S 0 94.9 682
11:19:47 8 980 202 9 W 0 95.1 674
11:22:47 8 980 209 8 S 0 95.1 674
11:25:47 8 980 212 11 S 0 95.5 671
11:28:47 8 980 206 19 W 0 95.3 688
11:31:49 8 980 209 12 S 0 94.1 688
11:34:48 8 980 208 32 S 0 93.8 685
11:37:51 8 979 202 12 SW 0 93.9 686
11:40:49 8 980 198 10 SO 0 92.7 685
11:43:49 8 980 200 16 SO 0 92.6 687
11:46:47 8 980 202 23 SW 0 92.3 679
11:49:46 9 979 210 9 S 0 92.1 685
11:52:49 9 980 216 14 S 0 92 676
11:55:48 9 979 204 12 SO 0 91.8 661
11:58:48 9 979 199 11 SO 0 91.2 657
12:01:47 9 980 203 10 S 0 91.5 661
12:04:46 9 979 217 15 S 0 92.3 664
12:07:47 9 978 214 9 O 0 93.3 644
12:10:49 9 979 218 11 SW 0 92.8 644
12:13:49 9 979 212 9 SO 0 92.2 641
12:16:52 9 979 218 13 SW 0 92 663
12:19:48 9 979 213 12 SW 0 91.2 656
12:22:47 9 978 223 12 SW 0 90.1 658
12:25:47 9 977 216 11 O 0 89.5 651
12:28:50 9 978 217 12 SW 0 89.4 659
12:31:50 9 978 217 8 SW 0 88.6 656
12:34:48 9 977 213 8 NW 0 88.4 662
12:37:52 9 978 209 4 SW 0 89.2 661
12:40:47 9 978 215 17 S 0 88.7 661
12:43:48 9 978 211 15 S 0 88.8 653
12:46:49 9 977 214 7 NW 0 88.8 647
12:49:49 9 978 209 16 S 0 89.1 651
12:52:46 9 977 203 5 SW 0 89.1 659
12:55:49 9 979 209 12 S 0 88.9 659
12:58:51 9 978 210 7 SO 0 89 660
13:01:48 9 977 206 12 S 0 89.3 656
13:04:48 9 979 203 23 S 0 89.1 648
13:07:48 9 977 204 24 W 0 89.4 648
13:10:46 9 977 202 14 S 0 89.1 652
13:13:48 9 977 205 13 SO 0 89.3 656
13:16:47 9 977 202 6 S 0 89.5 653
13:19:47 9 977 201 13 S 0 89.7 654
13:22:49 9 977 211 18 SW 0 89.8 644
13:25:47 9 977 207 10 SO 0 89.8 649
13:28:45 10 977 198 7 S 0 89.8 647
13:31:50 10 978 203 18 S 0 90 645
13:34:47 10 977 208 14 W 0 89.8 650
13:37:46 10 977 205 10 S 0 90 645
13:40:47 10 977 202 6 W 0 90.3 644
13:43:48 10 977 199 7 SW 0 90.1 651
13:46:48 10 976 192 18 SO 0 90.1 662
13:49:46 10 977 203 7 S 0 90 659
13:52:51 10 976 196 11 O 0 90.3 659
13:55:47 10 977 202 6 SW 0 90.4 656
13:58:48 10 977 199 7 SO 0 90.3 651
14:01:46 10 977 196 14 W 0 90.2 656
14:04:48 10 976 196 5 SW 0 90.2 645
14:07:47 10 977 189 1 O 0 90.4 647
14:10:47 10 977 177 7 SW 0 90.8 647
14:13:44 10 977 172 6 S 0 91.1 649
14:16:48 10 977 171 6 W 0 91.1 659
14:19:47 10 978 158 2 S 0 91.2 657
14:22:47 10 978 162 8 SW 0 91.8 653
14:25:47 10 977 163 5 S 0 92.3 658
14:28:49 10 977 169 8 SW 0 92.6 655
14:31:49 10 977 161 10 SO 0 92.9 662
14:34:48 9 977 151 6 SO 0 93.3 662
14:37:48 9 976 150 3 SO 0 94.2 668
14:40:47 9 977 165 7 SW 0 94.6 671
14:43:45 9 977 175 6 S 0 94.9 671
14:46:47 9 978 166 9 S 0 95.1 671
14:49:47 9 978 171 8 W 0 95.1 677
14:52:46 10 977 173 1 SO 0 95 682
14:55:48 10 978 160 12 S 0 94.8 691
14:58:49 10 977 170 8 W 0 94.6 688
15:01:48 10 976 173 3 SW 0 94.6 697
15:04:48 10 977 166 11 SO 0 94.8 694
15:07:47 10 977 175 5 S 0 94.8 706
15:10:48 10 978 170 5 S 0 95.1 694
15:13:49 10 977 169 4 SO 0 95.4 695
15:16:47 10 977 172 5 SW 0 95.7 691
15:19:48 10 977 185 12 W 0 96 697
15:22:48 10 978 191 5 S 0 96.6 694
15:25:49 10 977 196 10 W 0 96.6 694
15:28:49 10 977 198 15 NW 0 96.6 691
15:31:47 10 977 212 9 SO 0 96.6 685
15:34:47 10 977 205 11 SW 0 96.6 677
15:37:47 10 977 200 4 SW 0 96.6 682
15:40:48 10 977 203 6 S 0 96.6 691
15:43:46 10 977 195 5 S 0 96.6 691
15:46:48 10 977 195 19 S 0 96.6 692
15:49:49 10 977 196 13 SO 0 96.6 695
15:52:46 10 977 197 8 NO 0 96.6 703
15:55:49 10 977 184 4 S 0 96.6 700
15:58:46 10 978 173 8 S 0 96.6 701
16:01:46 10 977 169 4 SW 0 96.6 694
16:04:49 10 978 160 5 SW 0 96.6 697
16:07:49 10 978 162 10 NO 0 96.6 685
16:10:46 10 977 162 7 S 0 96.6 667
16:13:49 10 978 147 4 SW 0 96.6 672
16:16:46 10 978 140 5 SW 0 96.6 677
16:19:46 10 978 139 7 W 0 96.6 682
16:22:47 10 977 145 9 SO 0 96.6 683
16:25:47 10 978 145 7 S 0 96.6 689
16:28:46 10 977 158 3 W 0 96.6 699
16:31:49 10 977 158 11 W 0 96.6 700
16:34:48 10 977 149 6 S 0 96.6 698
16:37:48 10 977 136 6 SO 0 96.6 699
16:40:48 10 977 138 3 S 0 96.6 700
16:43:46 9 978 121 7 S 0 96.6 713
16:46:48 9 978 137 4 NW 0 96.6 717
16:49:46 9 977 116 10 SW 0 96.6 714
16:52:47 9 977 133 5 S 0 96.6 706
16:55:48 9 976 120 5 SW 0 96.6 700
16:58:48 9 977 85 10 SW 0 96.6 703
17:01:48 9 978 85 8 S 0 96.6 708
17:04:46 9 977 87 6 S 0 96.6 709
17:07:45 9 977 101 6 0 96.6 715
17:10:47 9 977 101 7 SO 0 96.6 720
17:13:46 9 976 81 5 S 0 96.6 721
17:16:48 9 976 74 5 SW 0 96.6 721
17:19:46 9 976 65 6 O 0 96.6 720
17:22:46 9 977 61 7 S 0 96.6 715
17:25:48 9 976 60 4 S 0 96.6 708
17:28:48 9 976 64 4 SW 0 96.6 703
17:31:46 9 976 50 6 SW 0 96.6 704
17:34:48 9 976 36 10 S 0 96.6 705
17:37:48 9 976 26 9 SW 0 96.6 706
17:40:47 9 976 24 8 NW 0 96.6 700
17:43:47 9 976 15 4 SW 0 96.6 706
17:46:46 9 976 11 11 N 0 96.6 706
17:49:48 9 976 8 8 S 0 96.6 709
17:52:46 9 976 6 4 SW 0 96.6 705
17:55:45 9 976 4 7 SW 0 96.6 699
17:58:46 9 976 0 7 S 0 96.6 692
18:01:47 9 976 0 5 S 0 96.6 694
18:04:45 9 976 0 7 S 0 96.6 698
18:07:49 9 976 0 7 SO 0 96.6 690
18:10:47 9 976 0 5 W 0 96.6 696
18:13:47 9 976 0 10 S 0 96.6 704
18:16:47 9 976 0 5 W 0 96.6 707
18:19:46 9 976 0 9 S 0 96.6 700
18:22:48 9 976 0 11 SW 0 96.6 700
18:25:49 10 976 0 8 SW 0 96.6 690
18:28:45 10 976 0 6 S 0 96.6 697
18:31:47 10 976 0 5 S 0.2575 96.6 703
18:34:45 10 976 0 5 NO 0 96.6 705
18:37:47 10 976 0 14 NW 0 96.6 701
18:40:46 10 976 0 8 SW 0 96.6 694
18:43:47 10 976 0 8 SO 0 96.6 691
18:46:48 10 976 0 4 SW 0 96.6 689
18:49:46 10 976 0 5 O 0 96.6 684
18:52:46 10 976 0 4 NW 0 96.6 691
18:55:45 10 976 0 4 SW 0 96.6 694
18:58:48 10 976 0 9 S 0 96.6 695
19:01:47 10 976 0 4 SW 0 96.6 695
19:04:47 10 976 0 2 SW 0 96.6 697
19:07:46 10 976 0 7 SW 0 96.6 693
19:10:46 10 976 0 10 SW 0 96.6 705
19:13:48 10 976 0 10 SW 0 96.6 705
19:16:44 10 976 0 7 S 0 96.6 700
19:19:47 10 975 0 10 SW 0 96.6 695
19:22:46 10 974 0 4 S 0 96.6 690
19:25:46 10 975 0 12 S 0 96.6 696
19:28:47 10 975 0 14 S 0 96.6 703
19:31:47 10 974 0 9 SO 0 96.6 695
19:34:48 10 974 0 11 SO 0 96.6 691
19:37:47 10 975 0 5 S 0 96.6 689
19:40:47 10 974 0 8 S 0 96.6 703
19:43:48 10 974 0 9 SW 0 96.6 703
19:46:50 10 973 0 15 SW 0 96.6 702
19:49:45 10 974 0 7 W 0 96.6 702
19:52:49 10 974 0 7 W 0 96.6 700
19:55:48 10 974 0 4 SO 0 96.6 700
19:58:45 10 974 0 8 S 0 96.6 700
20:01:48 10 974 0 6 SO 0 96.4 702
20:04:46 10 974 0 7 S 0 96.1 705
20:07:46 10 974 0 10 O 0 95.9 702
20:10:47 10 973 0 8 S 0 95.6 704
20:13:48 10 973 0 17 S 0 95.2 703
20:16:45 10 974 0 12 W 0 95.2 710
20:19:48 10 973 0 12 SW 0 95.5 699
20:22:48 10 973 0 8 SW 0 95.8 697
20:25:50 10 973 0 12 S 0 96 697
20:28:47 10 973 0 17 S 0 96.4 707
20:31:48 10 973 0 10 S 0 96.6 691
20:34:49 10 973 0 9 S 0 96.6 683
20:37:45 10 973 0 4 N 0 96.6 677
20:40:51 10 973 0 12 NW 0 96.6 686
20:43:46 10 973 0 7 SO 0 96.6 688
20:46:49 10 973 0 8 SW 0 96.6 695
20:49:48 10 973 0 16 SO 0 96.6 684
20:52:49 10 973 0 9 SW 0 96.6 682
20:55:48 10 973 0 8 SW 0 96.6 685
20:58:48 10 973 0 13 W 0.2575 96.6 683
21:01:47 10 972 0 8 W 0 96.6 686
21:04:46 10 973 0 4 SO 0 96.6 679
21:07:45 10 973 0 6 S 0 96.6 682
21:10:48 10 973 0 10 O 0 96.6 680
21:13:49 10 972 0 13 SO 0 96.6 682
21:16:46 10 973 0 23 SW 0 96.6 674
21:19:47 10 972 0 14 SO 0 96.6 665
21:22:45 10 972 0 6 SO 0 96.6 661
21:25:49 10 972 0 15 SW 0 96.6 658
21:28:47 10 972 0 9 SW 0 96.6 659
21:31:45 10 972 0 7 W 0 96.6 655
21:34:47 10 971 0 19 SW 0 96.6 647
21:37:47 10 971 0 14 S 0 96.6 642
21:40:46 10 972 0 9 W 0 96.6 644
21:43:50 10 971 0 10 SO 0 96.6 638
21:46:46 10 971 0 15 SO 0 96.6 633
21:49:48 10 971 0 25 SW 0 96.6 627
21:52:46 10 970 0 10 S 0 96.6 633
21:55:46 11 971 0 18 N 0 96.6 626
21:58:47 11 970 0 10 SW 0 96.6 620
22:01:46 11 970 0 8 S 0 96.6 612
22:04:45 11 970 0 9 W 0 96.6 617
22:07:48 11 970 0 13 W 0 96.6 618
22:10:53 11 970 0 27 SO 0 96.6 616
22:13:48 11 970 0 5 SW 0 96.6 492
22:16:46 11 970 0 9 SW 0 96.5 489
22:19:47 11 969 0 15 W 0 96.4 483
22:22:47 11 970 0 18 SW 0 96.6 477
22:25:48 11 969 0 10 SW 0 96.6 471
22:28:47 11 970 0 10 S 0 96.6 471
22:31:48 11 970 0 12 SW 0.2575 96.6 472
22:34:47 11 969 0 7 SO 0.2575 96.6 472
22:37:47 10 969 0 7 S 0 96.6 465
22:40:51 10 969 0 10 SW 0 96.6 460
22:43:48 10 969 0 23 S 0 96.6 456
22:46:46 10 969 0 14 SW 0 96.6 453
22:49:48 10 969 0 7 SW 0 96.6 450
22:52:47 11 969 0 7 SO 0 96.6 451
22:55:47 11 969 0 5 W 0 96.6 454
22:58:47 11 969 0 13 S 0 96.6 444
23:01:48 11 969 0 13 SW 0 96.6 450
23:04:48 11 969 0 12 S 0 96.6 451
23:07:48 11 969 0 14 N 0 96.6 459
23:10:48 11 969 0 6 SO 0 96.6 462
23:13:48 11 969 0 21 SW 0 96.6 466
23:16:47 11 969 0 6 W 0 96.6 454
23:19:48 11 969 0 5 SO 0 96.6 456
23:22:48 11 969 0 9 S 0 96.6 450
23:25:47 11 969 0 15 SO 0 96.6 454
23:28:48 11 969 0 12 O 0 96.6 460
23:31:47 11 969 0 10 SW 0 96.6 451
23:34:47 11 969 0 14 W 0 96.6 451
23:37:49 11 969 0 7 SW 0 96.6 448
23:40:48 11 969 0 12 NW 0 96.6 445
23:43:46 11 969 0 12 W 0 96.6 445
23:46:47 11 969 0 17 S 0 96.6 444
23:49:45 11 969 0 13 S 0 96.6 445
23:52:47 11 969 0 17 SW 0.2575 96.6 442
23:55:48 11 969 0 8 SW 0 96.6 442
23:58:45 11 968 0 7 SW 0.2575 96.6 434

Letzte Änderung : 04-Jan-2022
Copyright Jens Köhler, Wolfsburg, Obere Dorfstraße 10d